Regional Weather Roundup
Issued by NWS Northern Indiana

Home | Current Version | Previous Version | Graphics & Text | Print | Product List | Glossary On
Versions: 1 2 3 4 5 6 7 8 9 10 11 12 13 14 15 16 17 18 19 20 21 22 23 24 25 26 27 28 29 30 31 32 33 34 35 36 37 38 39 40 41 42 43 44 45 46 47 48 49 50
000
ASUS43 KIWX 301500
RWRIWX

KIWX WEATHER ROUNDUP
NATIONAL WEATHER SERVICE NORTHERN INDIANA
1000 AM EST FRI JAN 30 2015

NOTE: "FAIR" INDICATES FEW OR NO CLOUDS BELOW 12,000 FEET WITH NO
SIGNIFICANT WEATHER AND/OR OBSTRUCTIONS TO VISIBILITY.

* THESE STATIONS ARE NOT UNDER NWS QUALITY CONTROL. THEY ALSO MAY NOT
  REPORT WEATHER SUCH AS PRECIPITATION OR FOG.

INZ001>027-301600-
NORTHERN INDIANA

CITY           SKY/WX    TMP DP  RH WIND       PRES   REMARKS
GARY*          MOSUNNY   27   7  43 NW14G25   30.51R WCI  15
SOUTH BEND     LGT SNOW  24  15  68 N15       30.47R WCI  11
ELKHART*       CLOUDY    21   9  58 N8        30.47R WCI  12
GOSHEN         CLOUDY    22  12  65 N12       30.46R WCI  10
ANGOLA*        CLOUDY    19   9  63 N9        30.42R WCI   9
FORT WAYNE     PTSUNNY   23  10  57 N22G30    30.46R WCI   8
PERU/GRISSOM   CLOUDY    25  15  65 N14       30.45R WCI  14

$$
INZ028>050-301600-
CENTRAL INDIANA

CITY           SKY/WX    TMP DP  RH WIND       PRES   REMARKS
LAFAYETTE      SUNNY     27  14  58 N12       30.49R WCI  17
KOKOMO*        CLOUDY    27  16  63 N15       30.46R WCI  15
MUNCIE*        CLOUDY    24  15  68 N18G31    30.44R WCI  10
INDIANAPOLIS   MOSUNNY   25  14  63 N15       30.46R WCI  13

$$
MIZ043>046-050>051-056>058-064>065-071>073-077>080-301600-
SOUTHWEST LOWER MICHIGAN

CITY           SKY/WX    TMP DP  RH WIND       PRES   REMARKS
BATTLE CREEK   CLOUDY    21   7  54 N13       30.44R WCI   9
BENTON HARBOR  LGT SNOW  22  17  81 VRB5G18   30.47S WCI  16
COLDWATER*     CLOUDY    20   8  58 N10G16    30.43R WCI   9
HILLSDALE*     PTSUNNY   19   7  60 N12       30.39R WCI   6
HOLLAND        FLURRIES  21  10  62 N8        30.48R WCI  11
GRAND RAPIDS   CLOUDY    20   7  57 NW13      30.46R WCI   7
KALAMAZOO      CLOUDY    20  10  65 N9        30.46R WCI   9
STURGIS*       FLURRIES  19  10  68 N5        30.44R WCI  13
THREE RIVERS*  CLOUDY    21  10  61 N10       30.47R WCI  10

$$
OHZ001>008-015>018-024>025-301600-
NORTHWEST OHIO

CITY           SKY/WX    TMP DP  RH WIND       PRES   REMARKS
DEFIANCE       CLOUDY    23   9  55 N16       30.44R WCI  10
FINDLAY        SUNNY     21   8  57 N18G26    30.40R WCI   6
TOLEDO EXPRESS SUNNY     19   8  62 N14G24    30.42R WCI   6
TOLEDO METCALF MOSUNNY   19   6  57 N16G26    30.43R WCI   4
LIMA           CLOUDY    23  11  60 N13       30.39R WCI  11

$$
AND FOR LAKE MICHIGAN COASTAL AND OPEN LAKE BUOY OBSERVATIONS

STATION/POSITION TEMP    WIND        PRES    VSBY  WAVE
                 AIR SEA DIR/SP/G                  HT/PER
                 (F)     (DEG/KT/KT) (MB)    (MI)  (FT/S)
CALUMET HARBOR    23     310/  7/ 12   N/A
MICHIGAN CITY     26     340/ 22/ 24   N/A
SAINT JOSEPH      26     330/ 17/ 22 1032.5R

$$
&&


USA.gov is the U.S. government's official web portal to all federal, state and local government web resources and services.